Location: Sternwarte ZA, Rosenfeld-Brittheim
(48.2889°N, 8.6789°E)
Time: 08:27:21
(UTC+02:00)

ISS - Pass Details

Date: 27 October 2020
Orbit: 418 x 419 km, 51.6° (Epoch: 19 October)

Event Time Altitude Azimuth Distance (km) Brightness Sun altitude
Exits shadow 05:54:43 18° 251° (WSW) 1,109 -2.2 -12.0°
Maximum altitude 05:57:07 83° 339° (NNW) 426 -3.8 -11.6°
Drops below altitude 10° 06:00:29 10° 68° (ENE) 1,500 0.1 -11.0°
Sets 06:02:35 0° 69° (ENE) 2,366 1.2 -10.7°
